Weather History for Trieste, Italy

Change the Weather History Date:

Sunday, July 21, 2013

  Actual Average Record
Temperature  
Mean Temperature 80 °F -  
Max Temperature 91 °F 82 °F 91 °F (2013)
Min Temperature 68 °F 67 °F 32 °F (2001)
Cooling Degree Days 14    
Growing Degree Days 30 (Base 50)    
Moisture  
Dew Point 61 °F    
Average Humidity 51    
Maximum Humidity 83    
Minimum Humidity 22    
Precipitation  
Precipitation 0.01 in 0.12 in - ()
Sea Level Pressure  
Sea Level Pressure 30.01 in    
Wind  
Wind Speed 9 mph ()    
Max Wind Speed 18 mph    
Max Gust Speed 40 mph    
Visibility 7.3 miles    
Events Rain    
Averages and records for this station are not official NWS values.
T = Trace of Precipitation, MM = Missing Value Source: Averaged Metar Reports

Daily Weather History Graph

Daily Weather History Graph

Search for Another Location

Airport:

Trip Planner

Search our weather history database for the weather conditions in past years. The results will help you decide how hot, cold, wet, or windy it might be!

Date:

Astronomy

Jul. 21, 2013 Rise Set
Actual Time 5:36 AM CEST 8:46 PM CEST
Civil Twilight 5:00 AM CEST 9:21 PM CEST
Nautical Twilight 4:13 AM CEST 10:07 PM CEST
Astronomical Twilight 3:16 AM CEST 11:04 PM CEST
Moon 7:27 PM CEST (7/21) 4:03 AM CEST (7/21)
Length of Visible Light 16h 21m
Length of Day
15h 09m
Waxing Gibbous, 97% of the Moon is Illuminated
Jul 21
Waxing Gibbous
Jul 22
Full
Jul 29
Last Quarter
Aug 6
New
Aug 14
First Quarter

Hourly Weather History & Observations

Time (CEST) Temp. Heat Index Dew Point Humidity Pressure Visibility Wind Dir Wind Speed Gust Speed Precip Events Conditions
12:55 AM 77.0 °F - 59.0 °F 54% 29.98 in - East 2.3 mph - N/A   Clear
1:55 AM 78.8 °F - 59.0 °F 51% 29.98 in - ENE 12.7 mph - N/A   Clear
2:00 AM 78 °F - 60 °F 43% 29.99 in 12 mi ENE 12.7 mph - -   Scattered Clouds
2:55 AM 78.8 °F - 60.8 °F 54% 29.98 in - ENE 12.7 mph 27.6 mph N/A   Clear
3:55 AM 78.8 °F - 60.8 °F 54% 29.98 in - ENE 10.4 mph 23.0 mph N/A   Clear
4:55 AM 78.8 °F - 57.2 °F 47% 29.98 in - ENE 16.1 mph 32.2 mph N/A   Clear
5:55 AM 78.8 °F - 57.2 °F 47% 29.98 in 6.2 mi ENE 15.0 mph 32.2 mph N/A   Partly Cloudy
6:55 AM 75.2 °F - 60.8 °F 61% 30.04 in 6.2 mi NE 18.4 mph 40.3 mph N/A Rain Light Rain
7:55 AM 68.0 °F - 62.6 °F 83% 30.04 in 6.2 mi ENE 11.5 mph 23.0 mph N/A Rain Light Rain
8:00 AM 69 °F - 63 °F 76% 30.04 in 6 mi ENE 11.5 mph - - Rain Light Rain
8:55 AM 71.6 °F - 60.8 °F 69% 30.04 in 6.2 mi ENE 15.0 mph 29.9 mph N/A   Scattered Clouds
9:55 AM 77.0 °F - 60.8 °F 57% 30.01 in 6.2 mi NE 15.0 mph 34.5 mph N/A   Scattered Clouds
10:55 AM 84.2 °F 83.5 °F 57.2 °F 40% 30.04 in 6.2 mi ENE 11.5 mph 23.0 mph N/A   Partly Cloudy
11:55 AM 86.0 °F 84.5 °F 55.4 °F 35% 30.04 in - ENE 9.2 mph 26.5 mph N/A   Clear
12:55 PM 87.8 °F 86.1 °F 55.4 °F 33% 30.01 in - ENE 9.2 mph - N/A   Clear
1:55 PM 89.6 °F 87.7 °F 55.4 °F 31% 30.01 in 6.2 mi ENE 9.2 mph 21.9 mph N/A   Partly Cloudy
2:00 PM 90 °F - 56 °F 22% 30.01 in 12 mi ENE 9.2 mph - -   Partly Cloudy
2:55 PM 91.4 °F 89.4 °F 55.4 °F 29% 30.01 in 6.2 mi East 9.2 mph - N/A   Partly Cloudy
3:55 PM 91.4 °F 89.1 °F 53.6 °F 28% 29.98 in 6.2 mi East 8.1 mph 20.7 mph N/A   Partly Cloudy
4:55 PM 86.0 °F 91.8 °F 71.6 °F 62% 30.01 in 6.2 mi West 6.9 mph - N/A   Partly Cloudy
5:55 PM 82.4 °F 86.3 °F 69.8 °F 66% 29.98 in 6.2 mi WNW 4.6 mph - N/A   Partly Cloudy
6:55 PM 82.4 °F 86.3 °F 69.8 °F 66% 29.98 in - West 2.3 mph - N/A   Clear
7:55 PM 82.4 °F 86.3 °F 69.8 °F 66% 29.98 in - West 2.3 mph - N/A   Clear
8:00 PM 82 °F - 70 °F 60% 30.00 in 12 mi West 2.3 mph - -   Scattered Clouds
8:55 PM 77.0 °F - 64.4 °F 65% 30.01 in - ENE 3.5 mph - N/A   Clear
9:55 PM 78.8 °F - 57.2 °F 47% 30.01 in - East 8.1 mph - N/A   Clear
10:55 PM 80.6 °F 80.8 °F 57.2 °F 45% 30.04 in - ENE 13.8 mph 25.3 mph N/A   Clear
11:55 PM 77.0 °F - 55.4 °F 47% 30.04 in - ENE 13.8 mph - N/A   Clear